Weather History for KLND - March, 2012

Change the Weather History Date:

Sunday, March 4, 2012

  Actual Average Record
Temperature  
Mean Temperature 45 °F 31 °F  
Max Temperature 57 °F 43 °F 64 °F (1986)
Min Temperature 32 °F 20 °F -9 °F (1912)
Degree Days  
Heating Degree Days 20 34  
Month to date heating degree days 132 137  
Since 1 July heating degree days 5475 5841  
Cooling Degree Days 0 0  
Month to date cooling degree days 0 0  
Year to date cooling degree days 0 0  
Moisture  
Dew Point 20 °F    
Average Humidity 43    
Maximum Humidity 61    
Minimum Humidity 24    
Precipitation  
Precipitation 0.00 in 0.02 in 1.46 in (1938)
Month to date precipitation 0.00 0.10  
Year to date precipitation 1.31 1.09  
Snow  
Snow 0.00 in 0.40 in - ()
Month to date snowfall 0.0 1.6  
Since 1 July snowfall 51.7 55.2  
Snow Depth 0.00 in    
Sea Level Pressure  
Sea Level Pressure 30.06 in    
Wind  
Wind Speed 7 mph (SSW)    
Max Wind Speed 22 mph    
Max Gust Speed 31 mph    
Visibility 10 miles    
Events      
T = Trace of Precipitation, MM = Missing Value Source: NWS Daily Summary

Daily Weather History Graph

Daily Weather History Graph

Search for Another Location

Airport or City:

Trip Planner

Search our weather history database for the weather conditions in past years. The results will help you decide how hot, cold, wet, or windy it might be!

Date:

Astronomy

Mar. 04, 2012 Rise Set
Actual Time 6:44 AM MST 6:08 PM MST
Civil Twilight 6:16 AM MST 6:37 PM MST
Nautical Twilight 5:43 AM MST 7:09 PM MST
Astronomical Twilight 5:10 AM MST 7:42 PM MST
Moon 2:20 PM MST 4:12 AM MST
Length of Visible Light 12h 20m
Length of Day
11h 23m
Waxing Gibbous, 84% of the Moon is Illuminated
Mar 4
Waxing Gibbous
Mar 8
Full
Mar 14
Last Quarter
Mar 22
New
Mar 30
First Quarter

Hourly Weather History & Observations

Time (MST) Temp. Windchill Dew Point Humidity Pressure Visibility Wind Dir Wind Speed Gust Speed Precip Events Conditions
12:53 AM 35.1 °F - 21.0 °F 57% 29.99 in 10.0 mi Calm Calm - N/A   Clear
1:53 AM 43.0 °F 34.0 °F 19.0 °F 38% 29.95 in 10.0 mi NW 21.9 mph 31.1 mph N/A   Clear
2:53 AM 35.1 °F 29.3 °F 21.0 °F 57% 30.02 in 10.0 mi SE 6.9 mph - N/A   Clear
3:53 AM 39.9 °F - 17.1 °F 40% 30.03 in 10.0 mi Calm Calm - N/A   Clear
4:53 AM 39.0 °F 35.7 °F 18.0 °F 43% 30.05 in 10.0 mi East 4.6 mph - N/A   Clear
5:53 AM 39.0 °F 32.3 °F 17.1 °F 41% 30.08 in 10.0 mi West 10.4 mph 18.4 mph N/A   Clear
6:53 AM 37.9 °F 30.9 °F 17.1 °F 43% 30.12 in 10.0 mi West 10.4 mph - N/A   Clear
7:53 AM 39.9 °F 32.9 °F 17.1 °F 40% 30.14 in 10.0 mi West 11.5 mph - N/A   Clear
8:53 AM 45.0 °F 39.7 °F 17.1 °F 33% 30.12 in 10.0 mi WNW 10.4 mph - N/A   Clear
9:53 AM 46.0 °F 39.9 °F 23.0 °F 40% 30.13 in 10.0 mi SE 13.8 mph - N/A   Clear
10:53 AM 50.0 °F - 21.0 °F 32% 30.12 in 10.0 mi South 10.4 mph - N/A   Clear
11:53 AM 52.0 °F - 21.0 °F 30% 30.12 in 10.0 mi SSE 10.4 mph - N/A   Clear
12:53 PM 52.0 °F - 19.0 °F 27% 30.08 in 10.0 mi SSE 5.8 mph - N/A   Clear
1:53 PM 55.0 °F - 19.9 °F 25% 30.02 in 10.0 mi SSE 6.9 mph - N/A   Clear
2:53 PM 55.0 °F - 21.0 °F 27% 30.04 in 10.0 mi SSE 10.4 mph - 0.00 in   Clear
3:53 PM 55.9 °F - 21.0 °F 26% 30.02 in 10.0 mi SSE 6.9 mph - N/A   Clear
4:53 PM 54.0 °F - 19.9 °F 26% 30.02 in 10.0 mi NW 10.4 mph - N/A   Clear
5:53 PM 48.0 °F - 21.0 °F 34% 30.04 in 10.0 mi WSW 5.8 mph - N/A   Clear
6:53 PM 42.1 °F - 23.0 °F 47% 30.07 in 10.0 mi Calm Calm - N/A   Clear
7:53 PM 39.0 °F - 21.9 °F 50% 30.06 in 10.0 mi Calm Calm - N/A   Clear
8:53 PM 41.0 °F 37.1 °F 19.9 °F 43% 30.04 in 10.0 mi NW 5.8 mph - N/A   Clear
9:53 PM 37.0 °F - 21.0 °F 52% 30.04 in 10.0 mi Calm Calm - N/A   Clear
10:53 PM 33.1 °F 30.0 °F 21.9 °F 64% 30.03 in 10.0 mi ESE 3.5 mph - N/A   Clear
11:53 PM 36.0 °F - 19.9 °F 52% 30.01 in 10.0 mi Calm Calm - N/A   Clear